Date,TemperatureHighF,TemperatureAvgF,TemperatureLowF,DewpointHighF,DewpointAvgF,DewpointLowF,HumidityHigh,HumidityAvg,HumidityLow,PressureMaxIn,PressureMinIn,WindSpeedMaxMPH,WindSpeedAvgMPH,GustSpeedMaxMPH,PrecipitationSumIn
2013-1-1,35,32,27,35,30,21,99,94,77,30.12,30.01,8,3,11,0.08
2013-1-2,41,28,19,27,20,16,99,76,46,30.22,30.10,15,2,27,0.01
2013-1-3,41,28,19,25,20,16,95,74,44,30.30,30.17,21,5,21,0.00
2013-1-4,42,32,27,27,24,22,85,72,51,30.34,30.27,24,9,34,0.00
2013-1-5,45,33,24,31,26,22,96,77,50,30.35,30.15,11,5,13,0.00
2013-1-6,41,35,28,34,29,22,88,80,75,30.34,30.02,17,7,24,0.00
2013-1-7,46,32,23,30,25,18,99,78,50,30.45,30.22,11,4,14,1.51
2013-1-8,55,43,27,35,32,24,88,65,46,30.31,30.22,14,7,17,0.00
2013-1-9,55,46,43,49,43,34,99,87,68,30.48,30.23,15,6,15,0.04
2013-1-10,54,42,19,51,37,-2,95,82,15,30.50,30.15,11,4,12,0.05
2013-1-11,75,58,54,64,54,49,99,86,62,29.97,29.89,17,10,20,0.39
2013-1-12,67,62,-3,65,61,-4,99,97,35,30.04,29.86,18,7,33,1.15
2013-1-13,66,54,37,63,54,37,99,98,83,30.04,29.78,22,9,22,0.61
2013-1-14,37,28,24,37,24,22,99,86,75,30.38,30.04,6,0,8,0.63
2013-1-15,32,29,23,29,25,22,99,87,77,30.33,30.07,0,0,0,0.63
2013-1-16,34,32,29,32,30,29,99,96,88,30.08,29.96,11,3,13,0.63
2013-1-17,42,34,29,32,30,27,98,84,65,30.30,30.06,5,2,7,0.76
2013-1-18,40,32,20,27,22,16,89,69,47,30.50,30.25,17,8,20,0.01
2013-1-19,57,50,35,30,26,22,67,43,29,30.25,29.93,27,16,33,0.01
2013-1-20,48,36,28,30,12,7,62,39,28,30.20,29.94,19,6,23,0.01
2013-1-21,27,20,15,17,6,1,74,54,43,30.17,30.08,17,7,17,0.01
2013-1-22,23,14,7,5,0,-3,76,55,34,30.36,30.17,15,6,17,0.01
2013-1-23,51,19,13,33,6,1,70,56,50,30.32,30.07,13,5,14,0.01
2013-1-24,29,21,15,10,3,-2,64,47,30,30.54,30.08,10,5,13,0.01
2013-1-25,33,23,19,31,17,7,94,81,55,30.21,30.03,12,5,12,0.01
2013-1-26,41,30,20,23,20,17,99,70,47,30.40,30.20,8,4,11,0.05
2013-1-27,39,32,22,27,24,18,87,72,61,30.40,30.24,11,4,12,0.05
2013-1-28,52,50,37,52,49,27,99,96,68,30.24,30.04,23,11,24,0.31
2013-1-29,67,60,52,60,56,52,99,86,72,30.06,29.70,31,12,31,0.31
2013-1-30,62,52,37,62,50,35,99,96,83,29.53,29.31,26,12,35,0.76
2013-1-31,37,28,24,35,20,12,99,74,55,29.93,29.46,21,12,28,0.76
2013-2-1,22,13,6,22,4,-1,99,66,52,30.38,29.93,17,8,17,0.76
2013-2-2,34,27,12,28,24,6,99,90,70,30.30,29.97,18,8,20,0.77
2013-2-3,28,23,19,24,18,15,93,80,63,30.08,29.93,14,7,16,0.00
2013-2-4,37,29,18,35,26,17,99,88,68,30.09,29.81,21,8,21,0.09
2013-2-5,39,34,30,35,32,30,99,94,80,29.93,29.83,7,2,8,0.12
2013-2-6,39,35,30,34,29,27,93,82,69,30.23,29.93,6,3,9,0.12
2013-2-7,65,50,30,40,34,27,93,62,35,30.19,29.89,11,4,14,0.12
2013-2-8,54,36,34,38,32,28,99,86,53,30.24,29.87,12,6,22,0.18
2013-2-9,47,34,22,22,21,19,88,61,37,30.40,30.24,8,3,9,0.18
2013-2-10,57,48,34,46,32,22,93,59,34,30.24,29.83,24,10,24,0.20
2013-2-11,53,49,42,50,34,28,92,58,43,30.02,29.79,35,16,40,0.21
2013-2-12,54,40,31,29,26,22,85,61,33,30.12,29.90,11,5,11,0.21
2013-2-13,38,33,31,34,31,26,99,93,64,29.89,29.75,8,3,10,0.07
2013-2-14,56,43,30,39,34,30,99,76,49,29.94,29.82,23,10,24,0.09
2013-2-15,47,34,27,35,28,22,90,79,52,30.13,29.94,14,5,14,0.09
2013-2-16,34,27,20,23,16,10,96,67,44,30.08,30.01,15,6,20,0.09
2013-2-17,38,27,14,15,8,0,94,51,23,30.21,30.08,11,4,15,0.09
2013-2-18,58,44,25,40,27,14,78,53,37,30.11,29.76,36,15,39,0.12
2013-2-19,46,33,26,42,28,15,99,80,61,30.07,29.75,26,14,30,0.19
2013-2-20,35,27,20,17,14,12,71,57,44,30.27,30.08,13,5,19,0.19
2013-2-21,36,29,19,24,20,14,84,70,60,30.32,30.11,14,6,16,0.19
2013-2-22,50,42,30,44,39,23,99,90,76,30.10,29.89,13,5,15,0.28
2013-2-23,52,41,32,37,28,24,89,61,38,29.98,29.88,11,4,14,0.28
2013-2-24,51,35,25,28,25,22,95,68,39,30.13,29.92,11,3,12,0.00
2013-2-25,51,37,24,28,24,22,93,63,40,30.14,29.87,14,6,16,0.00
2013-2-26,52,43,36,50,39,24,99,87,55,29.88,29.36,24,8,28,0.48
2013-2-27,41,40,38,41,39,38,99,99,98,29.57,29.52,17,11,24,0.01
2013-2-28,36,34,32,35,32,30,99,94,88,29.92,29.69,16,9,16,0.01
2013-3-1,36,34,31,36,33,27,99,97,87,30.00,29.90,8,3,8,0.05
2013-3-2,31,28,27,26,23,21,87,81,75,30.06,29.97,7,3,7,0.00
2013-3-3,32,29,26,26,22,18,89,76,67,30.06,30.01,8,4,13,0.00
2013-3-4,49,34,18,26,22,17,97,65,38,30.14,29.98,9,4,11,0.00
2013-3-5,40,37,32,39,34,25,99,88,58,29.98,29.55,17,6,21,0.28
2013-3-6,32,30,28,32,29,27,99,99,99,30.22,29.62,17,4,17,0.28
2013-3-7,39,34,30,35,32,28,99,92,80,30.35,30.22,7,2,9,0.33
2013-3-8,51,34,26,32,27,25,97,78,41,30.44,30.34,9,2,12,0.00
2013-3-9,64,46,29,38,32,28,98,63,34,30.35,30.05,11,4,14,0.00
2013-3-10,71,60,52,42,34,31,53,39,23,30.05,29.84,22,10,24,0.01
2013-3-11,60,49,38,55,45,33,99,89,45,29.87,29.62,29,8,29,0.71
2013-3-12,48,39,34,34,30,26,87,72,50,30.03,29.86,17,8,21,0.00
2013-3-13,37,31,26,33,24,18,99,78,53,30.30,30.00,21,8,23,0.00
2013-3-14,48,33,21,23,20,15,94,62,27,30.34,30.16,14,6,14,0.00
2013-3-15,56,43,30,40,34,22,97,73,54,30.16,29.79,33,5,33,0.00
2013-3-16,69,51,39,55,44,35,99,81,56,30.00,29.63,22,7,23,0.11
2013-3-17,38,34,32,35,33,30,99,95,85,30.12,29.97,15,5,15,0.38
2013-3-18,50,42,34,50,41,34,99,97,79,29.97,29.63,21,8,24,0.54
2013-3-19,49,39,30,36,24,11,97,59,22,30.10,29.84,29,11,34,0.00
2013-3-20,44,34,23,24,18,10,75,51,34,30.09,29.92,21,9,22,0.00
2013-3-21,39,27,20,16,12,8,74,54,30,30.03,29.92,15,4,15,0.00
2013-3-22,52,37,20,22,16,12,78,44,21,30.06,29.97,12,3,12,0.00
2013-3-23,60,43,32,25,21,17,64,44,22,30.05,29.86,13,3,13,0.00
2013-3-24,41,36,32,36,30,23,99,82,51,29.86,29.39,21,6,23,0.25
2013-3-25,35,32,30,34,32,29,99,99,97,29.92,29.42,17,7,19,0.22
2013-3-26,42,35,31,36,31,26,99,87,59,30.22,29.93,13,3,17,0.04
2013-3-27,46,37,29,32,27,25,91,67,46,30.30,30.21,17,5,17,0.00
2013-3-28,57,42,28,31,25,21,79,53,31,30.34,30.26,11,3,13,0.00
2013-3-29,60,45,30,35,29,24,91,57,30,30.31,30.18,13,3,14,0.00
2013-3-30,64,51,35,37,33,28,85,53,30,30.23,29.95,16,4,18,0.00
2013-3-31,60,50,45,49,44,36,99,80,54,29.94,29.78,17,5,20,0.02
2013-4-1,54,44,36,41,31,18,89,62,28,30.10,29.80,16,5,21,0.00
2013-4-2,52,39,27,22,17,12,68,43,21,30.24,30.10,15,4,23,0.00
2013-4-3,53,40,27,20,15,9,70,39,18,30.39,30.24,17,4,19,0.00
2013-4-4,56,44,33,28,20,16,53,39,24,30.31,29.99,10,4,13,0.00
2013-4-5,68,52,36,37,29,23,68,44,19,30.12,29.97,14,4,17,0.00
2013-4-6,70,54,38,39,30,21,59,40,24,30.19,29.92,16,7,21,0.00
2013-4-7,74,64,58,58,46,36,99,54,40,30.00,29.89,24,12,25,0.01
2013-4-8,74,64,55,57,54,48,99,72,51,30.01,29.91,23,8,29,0.00
2013-4-9,82,71,59,62,57,53,82,63,40,30.06,29.94,30,10,32,0.00
2013-4-10,85,74,67,66,61,58,79,64,43,29.99,29.79,27,11,31,0.00
2013-4-11,74,65,58,64,60,56,99,86,57,29.83,29.56,14,6,21,0.59
2013-4-12,58,48,41,58,42,33,99,79,54,29.93,29.54,27,9,27,0.07
2013-4-13,63,48,35,39,35,33,95,63,34,30.03,29.93,29,8,29,0.00
2013-4-14,74,57,40,48,41,36,89,58,31,30.06,29.88,13,5,16,0.00
2013-4-15,70,63,57,56,53,46,78,70,54,30.01,29.91,15,7,18,0.00
2013-4-16,83,66,59,68,60,55,99,82,58,30.18,29.97,21,7,26,0.22
2013-4-17,80,66,57,67,62,57,99,87,60,30.20,29.97,15,6,19,0.15
2013-4-18,84,73,63,66,59,53,89,64,39,29.98,29.65,33,15,36,0.01
2013-4-19,74,50,39,63,42,32,99,76,52,30.00,29.45,30,13,30,0.40
2013-4-20,58,45,35,36,31,26,98,62,31,30.38,30.00,17,6,22,0.00
2013-4-21,64,48,34,33,29,26,76,50,25,30.50,30.34,14,5,14,0.00
2013-4-22,74,57,36,44,36,29,86,47,28,30.35,30.13,14,4,14,0.00
2013-4-23,72,62,49,54,47,39,71,59,50,30.14,29.89,16,6,19,0.00
2013-4-24,65,52,39,58,46,36,99,82,61,30.23,29.81,21,8,26,0.64
2013-4-25,64,48,35,41,36,32,99,69,39,30.37,30.22,22,7,22,0.00
2013-4-26,69,53,36,40,32,27,98,49,25,30.45,30.32,9,2,11,0.00
2013-4-27,63,56,45,53,42,31,86,61,40,30.34,30.06,13,4,14,0.00
2013-4-28,69,59,54,63,58,53,99,94,75,30.06,29.83,14,6,18,0.41
2013-4-29,64,58,54,60,56,-1,99,92,10,30.01,29.90,9,4,11,0.02
2013-4-30,84,67,48,62,55,48,99,71,36,30.07,29.97,9,3,16,0.09
2013-5-1,89,74,-7,64,54,-16,61,53,10,30.19,30.06,25,2,28,0.09
2013-5-2,107,62,-2,96,42,-45,80,53,10,30.22,30.10,49,5,49,0.09
2013-5-3,73,73,65,56,55,40,54,53,40,30.10,29.97,8,5,13,0.00
2013-5-4,80,66,56,52,46,40,85,51,32,30.00,29.92,12,6,29,0.00
2013-5-5,56,53,50,54,52,48,99,95,77,30.00,29.92,24,3,24,1.58
2013-5-6,72,58,52,69,55,4,99,90,10,29.95,29.88,36,7,36,0.48
2013-5-7,80,63,53,65,56,9,99,84,10,29.98,29.91,97,4,97,0.02
2013-5-8,83,63,0,66,54,-12,99,79,10,30.03,29.92,27,2,27,0.07
2013-5-9,84,69,57,65,59,54,99,74,37,30.05,29.96,11,3,28,0.00
2013-5-10,74,64,-2,65,59,-45,99,86,10,29.97,29.84,58,9,58,0.37
2013-5-11,62,55,18,62,49,5,99,85,10,30.00,29.86,49,6,49,0.05
2013-5-12,62,50,39,43,36,30,99,64,31,30.13,30.00,16,4,19,0.00
2013-5-13,68,54,40,40,34,28,87,51,24,30.19,30.10,19,4,33,0.00
2013-5-14,83,64,46,65,47,34,70,55,39,30.15,29.85,17,8,25,0.00
2013-5-15,71,67,-7,60,56,-16,68,67,65,29.88,29.87,13,8,31,0.00
2013-5-16,78,67,63,69,62,53,99,86,57,30.01,29.88,11,4,11,0.25
2013-5-17,83,66,-4,70,63,-43,99,90,10,30.07,30.00,12,3,27,0.17
2013-5-18,86,68,-22,72,63,-31,99,87,10,30.08,29.98,26,2,26,0.06
2013-5-19,90,74,63,74,68,62,99,83,53,30.03,29.92,8,3,9,0.04
2013-5-20,86,75,-20,73,68,-27,99,82,10,30.04,29.92,13,6,13,0.00
2013-5-21,86,75,-11,75,67,-16,99,79,35,30.00,29.84,29,7,33,0.06
2013-5-22,80,70,62,68,58,8,99,74,10,29.89,29.77,21,7,42,0.05
2013-5-23,72,65,55,67,60,35,99,84,35,30.07,29.82,14,5,36,0.01
2013-5-24,71,60,14,49,41,-33,83,53,10,30.32,30.07,117,6,117,0.09
2013-5-25,71,56,14,49,43,-33,99,64,10,30.39,30.22,117,3,117,0.09
2013-5-26,77,63,-8,53,48,-24,95,61,10,30.31,30.18,24,2,42,0.00
2013-5-27,104,70,53,70,55,37,99,61,10,30.21,29.98,107,7,107,0.19
2013-5-28,84,76,68,67,62,20,83,62,10,30.07,29.96,34,8,35,0.00
2013-5-29,88,78,68,67,64,59,77,62,45,30.11,30.00,17,7,37,0.00
2013-5-30,88,76,68,72,66,64,89,74,51,30.17,30.03,14,6,14,0.00
2013-5-31,86,74,68,72,67,64,99,82,58,30.09,29.98,22,8,29,0.51
2013-6-1,83,73,-8,72,68,-8,99,86,10,30.00,29.82,17,8,21,0.04
2013-6-2,82,72,65,70,64,60,99,78,49,29.93,29.85,12,5,27,0.00
2013-6-3,77,66,58,62,56,53,90,71,48,30.06,29.93,9,3,14,0.00
2013-6-4,82,66,52,54,48,37,99,58,21,30.15,30.06,11,3,12,0.00
2013-6-5,86,70,56,68,58,47,99,70,45,30.08,29.88,11,2,14,0.31
2013-6-6,121,69,63,100,66,8,99,92,10,29.90,29.79,11,3,27,0.46
2013-6-7,84,68,58,64,61,55,99,80,48,29.90,29.81,10,4,29,0.19
2013-6-8,85,70,57,66,61,19,99,76,10,30.04,29.90,9,3,9,0.00
2013-6-9,84,72,62,71,65,21,99,82,10,30.09,29.94,14,5,34,0.00
2013-6-10,80,70,-7,70,66,-8,99,89,62,29.94,29.81,15,6,18,0.35
2013-6-11,87,74,-15,68,56,-22,99,67,10,30.00,29.89,30,6,30,0.01
2013-6-12,92,74,-21,79,64,-40,97,74,10,29.97,29.79,107,6,109,0.76
2013-6-13,84,76,66,76,68,57,99,77,50,29.93,29.65,18,6,21,0.60
2013-6-14,88,72,4,65,58,-19,99,64,10,30.06,29.93,9,2,11,0.00
2013-6-15,86,73,-16,68,62,-27,99,69,46,30.14,29.98,34,4,34,0.00
2013-6-16,78,72,67,75,68,63,99,87,71,30.06,29.98,9,4,29,0.21
2013-6-17,91,77,65,73,69,64,99,77,51,30.00,29.90,11,2,17,0.00
2013-6-18,112,72,-13,100,62,-54,99,77,10,30.00,29.87,36,4,36,0.08
2013-6-19,88,73,59,66,60,56,99,69,37,30.13,29.99,8,3,11,0.01
2013-6-20,91,76,58,67,60,31,97,61,34,30.22,30.13,8,2,10,0.00
2013-6-21,93,78,-20,72,64,-28,88,64,44,30.23,30.14,11,3,11,0.00
2013-6-22,92,79,-9,74,69,-35,99,74,25,30.21,30.08,11,4,35,0.00
2013-6-23,91,78,67,73,69,65,99,75,43,30.17,30.08,14,4,14,0.00
2013-6-24,88,77,68,74,70,67,99,81,59,30.17,30.06,12,4,15,0.00
2013-6-25,92,80,67,78,73,67,99,80,55,30.10,29.93,12,5,15,0.00
2013-6-26,88,73,-21,77,70,-27,99,90,67,29.97,29.81,20,5,27,1.39
2013-6-27,88,75,67,76,71,66,99,88,60,29.83,29.73,12,4,14,0.01
2013-6-28,88,79,72,74,69,62,99,74,42,29.74,29.62,15,7,21,0.00
2013-6-29,80,69,63,70,67,63,99,94,65,29.68,29.61,10,3,10,0.18
2013-6-30,86,71,62,70,66,62,99,87,53,29.84,29.67,8,2,16,0.06
2013-7-1,85,71,65,74,68,64,99,92,62,29.93,29.82,9,3,11,0.12
2013-7-2,87,74,64,72,68,63,99,85,56,30.04,29.93,9,3,11,0.01
2013-7-3,84,75,68,74,71,68,99,87,63,30.14,30.04,9,3,10,0.00
2013-7-4,73,70,67,72,70,67,99,98,89,30.18,30.08,8,3,10,1.32
2013-7-5,80,71,66,76,70,65,99,97,82,30.17,30.11,8,4,11,0.58
2013-7-6,80,71,67,77,70,67,99,97,81,30.15,30.07,12,4,19,1.07
2013-7-7,88,74,66,74,69,65,99,86,61,30.14,30.05,8,3,11,0.00
2013-7-8,89,78,68,76,71,67,99,81,55,30.16,30.06,11,4,13,0.00
2013-7-9,91,82,74,81,75,72,96,81,64,30.11,30.01,14,5,17,0.00
2013-7-10,92,79,69,80,75,69,99,89,65,30.03,29.87,17,5,24,0.13
2013-7-11,88,73,68,74,67,61,99,83,58,30.03,29.95,14,3,16,0.00
2013-7-12,85,72,59,65,61,59,99,71,48,30.11,30.03,14,4,14,0.00
2013-7-13,88,76,64,71,66,63,96,75,53,30.15,30.07,11,4,14,0.00
2013-7-14,95,81,69,78,73,68,99,78,55,30.24,30.13,11,4,33,0.00
2013-7-15,97,84,72,76,73,69,99,72,43,30.33,30.24,6,3,8,0.00
2013-7-16,102,86,71,78,73,70,99,69,41,30.36,30.27,6,2,7,0.00
2013-7-17,100,87,73,80,77,73,99,75,47,30.34,30.21,6,2,8,0.00
2013-7-18,98,92,80,79,76,72,96,62,47,30.22,30.05,7,3,9,0.00
2013-7-19,92,82,75,79,77,72,99,85,62,30.08,29.93,17,4,21,0.02
2013-7-20,92,80,72,77,74,70,99,84,58,29.96,29.88,14,5,20,0.00
2013-7-21,94,79,70,76,73,70,99,83,49,29.99,29.90,6,1,8,0.07
2013-7-22,82,73,68,76,72,68,99,96,77,29.94,29.79,11,3,13,1.24
2013-7-23,88,76,69,77,73,64,99,90,65,29.87,29.77,15,4,15,0.33
2013-7-24,83,70,60,71,64,60,99,83,55,30.00,29.84,9,3,11,0.00
2013-7-25,87,70,57,63,59,56,99,70,39,30.09,30.00,8,3,11,0.00
2013-7-26,85,71,58,69,63,58,99,77,45,30.11,29.99,9,2,11,0.00
2013-7-27,78,69,64,70,66,60,99,92,70,29.99,29.87,9,4,15,0.12
2013-7-28,77,66,54,60,55,50,99,69,44,30.08,29.92,14,4,14,0.00
2013-7-29,83,69,56,62,58,54,97,70,43,30.20,30.07,11,4,15,0.00
2013-7-30,84,71,58,67,63,58,99,78,47,30.24,30.14,7,2,9,0.00
2013-7-31,80,70,-13,71,67,-17,99,91,69,30.14,29.97,17,4,17,0.19
2013-8-1,86,75,68,72,66,58,99,76,45,30.02,29.94,13,3,13,0.00
2013-8-2,85,73,60,68,63,59,99,73,46,30.04,29.99,12,4,15,0.00
2013-8-3,86,72,-19,79,67,-52,99,85,15,30.04,29.98,9,2,9,0.20
2013-8-4,84,72,-17,66,60,-32,99,69,39,30.14,30.04,11,3,14,0.00
2013-8-5,85,72,57,64,59,56,99,68,39,30.13,29.99,8,2,10,0.00
2013-8-6,87,75,67,72,66,60,95,74,59,30.01,29.94,8,4,11,0.00
2013-8-7,89,76,-6,78,68,-48,99,83,10,29.98,29.90,28,4,29,0.00
2013-8-8,88,77,70,79,75,70,99,93,69,29.99,29.91,9,3,10,0.24
2013-8-9,75,71,69,75,61,58,99,71,63,30.05,29.93,13,3,13,1.10
2013-8-10,78,73,72,73,69,59,99,88,63,30.10,30.04,4,1,4,0.00
2013-8-11,74,72,71,73,72,71,99,99,93,30.12,30.08,3,1,4,0.00
2013-8-12,88,78,66,76,72,65,99,82,56,30.10,29.90,11,4,12,0.00
2013-8-13,82,72,64,73,68,52,99,88,53,30.06,29.88,10,4,11,0.00
2013-8-14,77,64,52,56,53,50,99,69,42,30.17,30.06,12,3,12,0.00
2013-8-15,78,66,53,60,56,52,99,72,47,30.18,30.09,8,2,9,0.00
2013-8-16,83,69,55,62,58,54,99,73,43,30.17,30.11,11,3,12,0.00
2013-8-17,88,72,60,67,62,57,91,71,44,30.19,30.12,8,4,11,0.00
2013-8-18,84,73,62,70,66,61,99,81,58,30.19,30.11,10,2,11,0.00
2013-8-19,91,75,62,74,66,61,99,76,39,30.16,30.08,7,2,8,0.00
2013-8-20,90,77,63,72,67,62,99,74,43,30.19,30.10,8,2,27,0.00
2013-8-21,89,77,68,75,71,67,99,83,59,30.19,30.08,8,4,11,0.00
2013-8-22,94,77,36,75,71,24,99,83,49,30.14,30.05,38,4,38,0.00
2013-8-23,90,76,68,74,69,66,99,83,49,30.15,30.05,5,2,8,0.09
2013-8-24,91,76,9,71,63,-36,99,68,10,30.27,30.15,25,3,29,1.51
2013-8-25,97,76,-15,70,63,-15,99,68,30,30.35,30.24,6,2,9,0.00
2013-8-26,94,78,66,75,70,65,99,79,47,30.27,30.10,8,3,30,0.00
2013-8-27,94,80,71,78,74,41,99,83,25,30.11,29.99,10,4,13,0.00
2013-8-28,95,82,73,78,75,73,99,81,50,30.01,29.90,16,6,19,0.00
2013-8-29,90,79,71,78,73,70,99,84,57,30.06,29.97,8,3,12,0.00
2013-8-30,94,79,67,79,70,66,99,78,45,30.02,29.87,8,2,11,0.00
2013-8-31,93,76,-8,78,72,-9,99,88,24,29.93,29.78,34,6,34,1.07
2013-9-1,88,76,67,76,71,67,99,88,60,29.87,29.79,10,4,12,0.00
2013-9-2,92,79,71,76,72,64,99,81,54,29.90,29.81,12,4,14,0.00
2013-9-3,75,67,60,64,61,60,99,83,63,30.04,29.90,10,3,11,0.00
2013-9-4,86,70,57,66,60,54,99,76,47,30.17,30.07,7,2,7,0.00
2013-9-5,92,75,59,68,63,59,99,71,35,30.21,30.14,7,2,7,0.00
2013-9-6,89,71,56,59,54,51,89,59,29,30.25,30.12,11,3,11,0.00
2013-9-7,89,74,56,69,63,55,99,72,47,30.12,29.98,9,3,9,0.00
2013-9-8,74,74,73,68,68,68,84,83,82,29.98,29.98,3,3,3,0.00
2013-9-9,92,80,69,74,71,69,99,77,50,30.07,29.99,14,5,14,0.00
2013-9-10,94,82,73,77,74,72,99,79,55,30.16,30.06,10,5,10,0.00
2013-9-11,94,81,72,76,74,72,99,80,52,30.19,30.06,10,5,10,0.00
2013-9-12,82,74,65,76,72,65,99,92,71,30.06,29.90,8,5,8,0.33
2013-9-13,69,62,50,65,53,47,99,76,49,30.08,29.93,9,4,9,0.00
2013-9-14,76,60,46,54,48,44,99,70,33,30.18,30.09,7,3,7,0.00
2013-9-15,80,70,47,61,57,47,99,67,48,30.16,30.04,17,4,17,0.00
2013-9-16,67,63,60,63,61,59,99,95,81,30.18,30.07,7,3,10,0.08
2013-9-17,81,65,52,58,55,52,99,74,42,30.31,30.17,10,4,10,0.00
2013-9-18,80,68,60,70,64,55,99,87,55,30.17,30.09,8,4,8,0.00
2013-9-19,82,71,65,72,68,65,99,92,68,30.11,30.00,11,5,11,0.09
2013-9-20,84,72,68,72,69,67,99,91,64,30.02,29.94,12,5,13,0.00
2013-10-8,73,56,44,56,46,36,99,72,37,30.28,30.17,10,3,10,0.01
2013-10-9,80,62,48,55,48,45,99,67,30,30.24,30.16,7,2,7,0.00
2013-10-10,82,61,44,62,48,44,99,70,30,30.20,30.08,5,1,5,0.00
2013-10-11,87,65,48,60,54,48,99,73,36,30.12,30.03,4,1,4,0.00
2013-10-12,83,66,52,65,58,42,99,76,46,30.14,30.04,6,2,6,0.00
2013-10-13,81,65,54,67,58,46,99,80,55,30.29,30.13,7,2,7,0.00
2013-10-14,74,56,48,56,49,46,96,80,50,30.32,30.26,7,3,10,0.00
2013-10-15,75,66,57,65,62,57,99,89,71,30.19,29.97,11,4,11,0.00
2013-10-16,66,62,52,64,60,49,99,92,61,29.98,29.91,11,5,14,0.15
2013-10-17,57,50,46,52,49,46,99,94,80,30.00,29.88,12,3,13,0.20
2013-10-18,56,45,43,51,45,42,99,98,82,30.06,29.99,11,4,12,0.01
2013-10-25,54,40,30,36,31,28,99,72,38,30.43,30.26,8,4,8,0.00
2013-10-26,54,43,30,40,32,26,86,67,50,30.28,29.95,34,8,34,0.01
2013-10-27,63,49,36,44,38,33,99,69,36,30.10,30.03,9,2,9,0.00
2013-10-28,72,51,34,49,38,33,99,67,28,30.28,30.09,8,2,8,0.00
2013-10-29,59,50,37,52,45,36,99,82,70,30.34,30.21,4,2,4,0.00
2013-10-30,64,59,53,64,57,42,99,93,60,30.20,30.03,9,3,9,0.18
2013-10-31,68,64,62,66,62,58,99,91,79,30.02,29.44,34,14,34,0.08
2013-11-1,68,58,50,68,50,45,99,77,47,29.76,29.48,19,8,19,0.04
2013-11-2,61,51,45,49,42,38,94,73,48,29.94,29.76,14,6,14,0.00
2013-11-3,59,48,38,44,36,-14,99,68,10,30.35,30.17,6,2,6,0.00
2013-11-4,61,51,31,45,39,-11,90,66,10,30.39,30.30,11,4,11,0.00
2013-11-5,62,54,24,46,41,-2,82,61,10,30.40,30.22,30,4,30,0.00
2013-11-6,69,57,-1,62,52,-10,99,86,56,30.22,29.98,18,9,18,0.39
2013-11-7,57,45,21,48,35,6,99,72,36,30.25,30.02,11,5,14,0.09
2013-11-8,58,42,4,36,29,-26,99,66,10,30.37,30.20,27,5,31,1.51
2013-11-9,63,49,23,56,32,-19,96,55,10,30.24,30.05,24,10,28,0.01
2013-11-10,58,48,18,41,29,-12,86,54,10,30.34,30.11,100,5,100,0.09
2013-11-11,64,47,8,46,32,-15,99,60,15,30.30,30.08,15,5,34,0.12
2013-11-12,41,32,25,40,25,19,99,78,46,30.59,30.21,14,5,17,0.08
2013-11-13,44,31,21,27,21,16,99,72,33,30.61,30.39,14,4,14,0.00
2013-11-14,58,44,28,25,19,13,75,42,17,30.38,30.16,20,8,34,0.00
2013-11-15,54,46,37,46,31,20,99,59,40,30.19,30.09,20,6,30,0.11
2013-11-16,60,53,46,57,52,46,99,95,87,30.14,29.93,20,8,22,0.00
2013-11-17,67,60,53,66,52,26,99,78,29,29.94,29.55,40,13,106,1.12
2013-11-18,59,48,37,43,36,28,85,64,40,30.18,29.81,22,8,32,0.00
2013-11-19,46,36,29,32,29,26,91,76,56,30.32,30.17,12,4,30,0.00
2013-11-20,57,41,29,36,30,-9,86,66,15,30.31,30.21,9,4,30,0.00
2013-11-21,54,46,43,52,37,32,93,71,63,30.30,30.19,10,4,30,0.02
2013-11-22,55,49,13,54,42,-33,99,81,10,30.35,30.16,69,5,69,0.08
2013-11-23,46,33,23,33,24,13,99,72,31,30.52,30.31,16,5,34,0.00
2013-11-24,36,22,-27,15,10,-35,74,60,10,30.66,30.49,10,3,28,0.09
2013-11-25,44,31,19,37,16,-28,93,58,10,30.50,30.18,30,7,30,0.09
2013-11-26,34,32,25,34,31,24,99,98,93,30.19,29.90,12,1,24,0.06
2013-11-27,43,28,20,36,23,12,98,83,65,30.26,29.89,100,4,100,0.14
2013-11-28,50,23,12,43,14,-29,93,73,10,30.42,30.26,102,6,102,0.11
2013-11-29,52,34,13,50,21,-28,98,64,10,30.59,30.42,29,3,77,0.72
2013-11-30,45,31,23,32,24,-17,80,75,15,30.48,30.17,8,2,20,0.00
2013-12-1,54,44,13,43,33,-3,73,64,10,30.18,29.95,22,7,31,0.05
2013-12-2,114,46,12,100,34,-20,97,71,10,29.95,29.78,105,8,105,1.51
2013-12-3,92,47,14,57,41,-12,99,84,10,29.87,29.78,29,3,29,0.76
2013-12-4,68,50,-10,64,46,-38,99,88,10,29.88,29.74,16,6,31,0.04
2013-12-5,78,47,-8,74,38,-43,99,82,10,30.14,29.79,31,6,31,0.56
2013-12-6,32,29,26,32,28,23,99,94,84,30.34,30.11,6,0,6,0.17
2013-12-7,35,25,19,29,22,-27,99,89,10,30.55,30.34,0,0,24,0.04
2013-12-8,43,26,19,28,21,-20,98,86,10,30.48,30.00,24,0,24,0.00
2013-12-9,33,30,25,29,15,-18,98,68,10,30.21,29.99,7,0,24,0.01
2013-12-10,32,24,19,24,20,17,99,85,62,30.33,30.12,17,2,21,0.00
2013-12-11,39,26,15,26,20,13,97,78,56,30.47,30.26,46,7,46,0.07
2013-12-12,42,19,8,30,9,-27,92,67,10,30.52,30.31,12,5,31,0.00
2013-12-13,45,30,18,38,18,10,85,62,40,30.32,30.13,16,6,34,0.01
2013-12-14,40,36,34,35,29,-16,98,79,10,30.12,29.69,30,5,30,0.43
2013-12-15,48,29,23,32,25,-6,95,85,10,30.11,29.85,37,10,42,1.51
2013-12-16,42,30,27,41,26,-21,98,87,10,30.11,29.98,28,5,28,0.02
2013-12-17,34,34,34,32,32,32,92,92,92,30.16,29.97,6,6,7,0.00
2013-12-18,34,34,34,32,32,32,92,92,92,30.25,30.06,6,6,7,0.00
2013-12-19,59,45,8,42,32,-5,92,68,10,30.09,29.97,38,9,41,0.00
2013-12-20,64,53,12,62,44,-4,98,74,10,29.97,29.85,106,12,106,0.06
2013-12-21,68,60,4,65,55,2,99,84,10,29.85,29.49,33,13,103,1.44
2013-12-22,60,54,41,59,48,22,99,82,23,30.02,29.58,30,11,36,0.33
2013-12-23,42,33,26,39,28,20,96,80,51,30.36,30.03,12,5,29,0.09
2013-12-24,49,24,9,44,15,-30,95,72,10,30.51,30.34,102,5,102,0.09
2013-12-25,46,24,14,44,15,0,92,68,15,30.46,30.18,8,6,8,0.00
2013-12-26,46,32,28,26,18,16,72,58,43,30.34,30.16,8,6,11,0.00
2013-12-27,53,38,11,32,27,-6,85,65,22,30.40,30.28,13,6,35,0.00
2013-12-28,54,40,13,34,23,-21,87,55,10,30.29,30.02,30,8,30,0.12
2013-12-29,54,38,10,41,33,-17,99,84,10,30.03,29.81,30,6,30,0.45
2013-12-30,36,28,17,31,21,-26,95,78,10,30.22,30.01,15,4,27,0.00
2013-12-31,43,29,-22,40,18,-27,92,65,10,30.35,30.15,100,10,100,0.00
2014-1-1,50,36,14,33,25,-12,88,66,10,30.26,29.99,14,4,27,0.00
2014-1-2,38,26,10,33,23,8,99,90,62,30.23,29.78,4,1,24,0.02